STARLINK-35955

Last updated on Wed Dec 31 2025 00:02:06 GMT+0000 (Coordinated Universal Time)

1 66635U 25271U 25364.34797392 .00057065 00000+0 14239-2 0 9990 2 66635 53.1600 103.9026 0001714 92.8132 267.3070 15.39664350 6926
UTC large
Height (km)
Speed (km/s)
/
Latitude / Longitude
Inclination (degrees)
Orbital Period (minutes)
Azimuth
Elevation
Range (km)
Doppler Factor

Next 0 passes for location: London (51.5072 / 0.1276)

Sorry there are no passes over London.